Time,TemperatureF,DewpointF,PressureIn,WindDirection,WindDirectionDegrees,WindSpeedMPH,WindSpeedGustMPH,Humidity,HourlyPrecipIn,Conditions,Clouds,dailyrainin,SolarRadiationWatts/m^2,SoftwareType,DateUTC
2013-03-10 00:00:00,29.9,26.2,30.39,NE,49,0.0,0.0,86,0.00,,,0.00,0,Wunderground v.1.15,2013-03-10 05:00:00,
2013-03-10 00:01:00,30.0,26.3,30.40,NE,49,0.0,0.0,86,0.00,,,0.00,0,Wunderground v.1.15,2013-03-10 05:01:00,
2013-03-10 00:03:00,29.9,26.2,30.40,NE,49,0.0,0.0,86,0.00,,,0.00,0,Wunderground v.1.15,2013-03-10 05:03:00,
2013-03-10 00:05:00,29.9,25.9,30.40,NE,49,0.0,0.0,85,0.00,,,0.00,0,Wunderground v.1.15,2013-03-10 05:05:00,
2013-03-10 00:11:00,29.7,25.7,30.40,NE,49,0.0,0.0,85,0.00,,,0.00,0,Wunderground v.1.15,2013-03-10 05:11:00,
2013-03-10 00:16:00,29.6,25.6,30.39,NE,49,0.0,0.0,85,0.00,,,0.00,0,Wunderground v.1.15,2013-03-10 05:16:00,
2013-03-10 00:22:00,29.4,25.7,30.40,NE,49,0.0,0.0,86,0.00,,,0.00,0,Wunderground v.1.15,2013-03-10 05:22:00,
2013-03-10 00:27:00,29.5,26.1,30.39,NE,49,0.0,0.0,87,0.00,,,0.00,0,Wunderground v.1.15,2013-03-10 05:27:00,
2013-03-10 00:33:00,29.3,25.6,30.39,NE,49,0.0,1.0,86,0.00,,,0.00,0,Wunderground v.1.15,2013-03-10 05:33:00,
2013-03-10 00:39:00,29.0,25.3,30.39,NE,49,0.0,1.0,86,0.00,,,0.00,0,Wunderground v.1.15,2013-03-10 05:39:00,
2013-03-10 00:44:00,28.9,25.5,30.39,NE,49,0.0,1.0,87,0.00,,,0.00,0,Wunderground v.1.15,2013-03-10 05:44:00,
2013-03-10 00:49:00,28.8,25.7,30.39,NE,49,0.0,1.0,88,0.00,,,0.00,0,Wunderground v.1.15,2013-03-10 05:49:00,
2013-03-10 00:54:00,28.7,25.6,30.39,NE,49,0.0,1.0,88,0.00,,,0.00,0,Wunderground v.1.15,2013-03-10 05:54:00,
2013-03-10 00:59:00,28.7,25.6,30.39,NE,49,0.0,1.0,88,0.00,,,0.00,0,Wunderground v.1.15,2013-03-10 05:59:00,
2013-03-10 01:04:00,28.6,25.5,30.40,NE,49,0.0,1.0,88,0.00,,,0.00,0,Wunderground v.1.15,2013-03-10 06:04:00,
2013-03-10 01:09:00,28.5,25.4,30.39,NE,49,0.0,1.0,88,0.00,,,0.00,0,Wunderground v.1.15,2013-03-10 06:09:00,
2013-03-10 01:15:00,28.5,25.4,30.40,NE,49,0.0,1.0,88,0.00,,,0.00,0,Wunderground v.1.15,2013-03-10 06:15:00,
2013-03-10 01:20:00,28.5,25.4,30.39,NE,49,0.0,1.0,88,0.00,,,0.00,0,Wunderground v.1.15,2013-03-10 06:20:00,
2013-03-10 01:25:00,28.4,25.3,30.40,NE,49,0.0,1.0,88,0.00,,,0.00,0,Wunderground v.1.15,2013-03-10 06:25:00,
2013-03-10 01:30:00,28.1,25.0,30.39,NE,49,0.0,1.0,88,0.00,,,0.00,0,Wunderground v.1.15,2013-03-10 06:30:00,
2013-03-10 01:35:00,28.0,24.9,30.39,NE,49,0.0,1.0,88,0.00,,,0.00,0,Wunderground v.1.15,2013-03-10 06:35:00,
2013-03-10 01:41:00,27.9,25.1,30.39,NE,49,0.0,1.0,89,0.00,,,0.00,0,Wunderground v.1.15,2013-03-10 06:41:00,
2013-03-10 01:46:00,27.8,25.0,30.39,NE,49,0.0,1.0,89,0.00,,,0.00,0,Wunderground v.1.15,2013-03-10 06:46:00,
2013-03-10 01:51:00,27.7,24.9,30.39,NE,49,0.0,1.0,89,0.00,,,0.00,0,Wunderground v.1.15,2013-03-10 06:51:00,
2013-03-10 01:56:00,27.6,24.8,30.39,NE,49,0.0,1.0,89,0.00,,,0.00,0,Wunderground v.1.15,2013-03-10 06:56:00,
2013-03-10 03:01:00,27.5,25.0,30.40,NE,49,0.0,1.0,90,0.00,,,0.00,0,Wunderground v.1.15,2013-03-10 07:01:00,
2013-03-10 03:07:00,27.4,24.6,30.39,NE,49,0.0,1.0,89,0.00,,,0.00,0,Wunderground v.1.15,2013-03-10 07:07:00,
2013-03-10 03:12:00,27.3,24.8,30.40,NE,49,0.0,1.0,90,0.00,,,0.00,0,Wunderground v.1.15,2013-03-10 07:12:00,
2013-03-10 03:17:00,27.2,24.7,30.40,NE,49,0.0,1.0,90,0.00,,,0.00,0,Wunderground v.1.15,2013-03-10 07:17:00,
2013-03-10 03:22:00,27.1,24.6,30.40,NE,49,0.0,1.0,90,0.00,,,0.00,0,Wunderground v.1.15,2013-03-10 07:22:00,
2013-03-10 03:27:00,27.0,24.5,30.40,NE,49,0.0,1.0,90,0.00,,,0.00,0,Wunderground v.1.15,2013-03-10 07:27:00,
2013-03-10 03:33:00,27.0,24.5,30.40,NE,49,0.0,1.0,90,0.00,,,0.00,0,Wunderground v.1.15,2013-03-10 07:33:00,
2013-03-10 03:38:00,27.0,24.5,30.40,NE,49,0.0,1.0,90,0.00,,,0.00,0,Wunderground v.1.15,2013-03-10 07:38:00,
2013-03-10 03:43:00,26.9,24.4,30.40,NE,49,0.0,1.0,90,0.00,,,0.00,0,Wunderground v.1.15,2013-03-10 07:43:00,
2013-03-10 03:48:00,26.8,24.5,30.40,NE,49,0.0,1.0,91,0.00,,,0.00,0,Wunderground v.1.15,2013-03-10 07:48:00,
2013-03-10 03:53:00,26.8,24.5,30.40,NE,49,0.0,1.0,91,0.00,,,0.00,0,Wunderground v.1.15,2013-03-10 07:53:00,
2013-03-10 03:58:00,26.8,24.5,30.40,NE,49,0.0,1.0,91,0.00,,,0.00,0,Wunderground v.1.15,2013-03-10 07:58:00,
2013-03-10 04:03:00,26.7,24.4,30.40,NE,49,0.0,1.0,91,0.00,,,0.00,0,Wunderground v.1.15,2013-03-10 08:03:00,
2013-03-10 04:09:00,26.5,24.0,30.41,NE,49,0.0,1.0,90,0.00,,,0.00,0,Wunderground v.1.15,2013-03-10 08:09:00,
2013-03-10 04:14:00,26.3,24.0,30.41,NE,49,0.0,1.0,91,0.00,,,0.00,0,Wunderground v.1.15,2013-03-10 08:14:00,
2013-03-10 04:19:00,26.2,23.9,30.41,NE,49,0.0,1.0,91,0.00,,,0.00,0,Wunderground v.1.15,2013-03-10 08:19:00,
2013-03-10 04:25:00,26.2,24.2,30.40,NE,49,0.0,1.0,92,0.00,,,0.00,0,Wunderground v.1.15,2013-03-10 08:25:00,
2013-03-10 04:30:00,26.3,24.3,30.41,NE,49,0.0,1.0,92,0.00,,,0.00,0,Wunderground v.1.15,2013-03-10 08:30:00,
2013-03-10 04:35:00,26.3,24.0,30.40,NE,49,0.0,1.0,91,0.00,,,0.00,0,Wunderground v.1.15,2013-03-10 08:35:00,
2013-03-10 04:40:00,26.2,24.2,30.40,NE,49,0.0,1.0,92,0.00,,,0.00,0,Wunderground v.1.15,2013-03-10 08:40:00,
2013-03-10 04:45:00,26.2,23.9,30.40,NE,49,0.0,1.0,91,0.00,,,0.00,0,Wunderground v.1.15,2013-03-10 08:45:00,
2013-03-10 04:50:00,26.0,23.7,30.41,NE,49,0.0,1.0,91,0.00,,,0.00,0,Wunderground v.1.15,2013-03-10 08:50:00,
2013-03-10 04:55:00,25.9,23.6,30.41,NE,49,0.0,1.0,91,0.00,,,0.00,0,Wunderground v.1.15,2013-03-10 08:55:00,
2013-03-10 05:00:00,25.9,23.9,30.41,NE,49,0.0,1.0,92,0.00,,,0.00,0,Wunderground v.1.15,2013-03-10 09:00:00,
2013-03-10 05:05:00,25.9,23.9,30.41,NE,49,0.0,1.0,92,0.00,,,0.00,0,Wunderground v.1.15,2013-03-10 09:05:00,
2013-03-10 05:10:00,25.8,23.8,30.41,NE,49,0.0,1.0,92,0.00,,,0.00,0,Wunderground v.1.15,2013-03-10 09:10:00,
2013-03-10 05:15:00,25.7,23.7,30.41,NE,49,0.0,1.0,92,0.00,,,0.00,0,Wunderground v.1.15,2013-03-10 09:15:00,
2013-03-10 05:20:00,25.8,23.8,30.41,NE,49,0.0,1.0,92,0.00,,,0.00,0,Wunderground v.1.15,2013-03-10 09:20:00,
2013-03-10 05:25:00,25.8,23.8,30.41,NE,49,0.0,1.0,92,0.00,,,0.00,0,Wunderground v.1.15,2013-03-10 09:25:00,
2013-03-10 05:31:00,25.8,23.8,30.41,NE,49,0.0,1.0,92,0.00,,,0.00,0,Wunderground v.1.15,2013-03-10 09:31:00,
2013-03-10 05:36:00,25.7,23.7,30.42,NE,49,0.0,1.0,92,0.00,,,0.00,0,Wunderground v.1.15,2013-03-10 09:36:00,
2013-03-10 05:41:00,25.6,23.6,30.42,NE,49,0.0,1.0,92,0.00,,,0.00,0,Wunderground v.1.15,2013-03-10 09:41:00,
2013-03-10 05:46:00,25.6,23.6,30.42,NE,49,0.0,1.0,92,0.00,,,0.00,0,Wunderground v.1.15,2013-03-10 09:46:00,
2013-03-10 05:51:00,25.5,23.5,30.42,NE,49,0.0,1.0,92,0.00,,,0.00,0,Wunderground v.1.15,2013-03-10 09:51:00,
2013-03-10 05:56:00,25.4,23.4,30.42,NE,49,0.0,1.0,92,0.00,,,0.00,0,Wunderground v.1.15,2013-03-10 09:56:00,
2013-03-10 06:01:00,25.4,23.4,30.42,NE,49,0.0,1.0,92,0.00,,,0.00,0,Wunderground v.1.15,2013-03-10 10:01:00,
2013-03-10 06:06:00,25.4,23.4,30.42,NE,49,0.0,1.0,92,0.00,,,0.00,0,Wunderground v.1.15,2013-03-10 10:06:00,
2013-03-10 06:11:00,25.4,23.4,30.43,NE,49,0.0,1.0,92,0.00,,,0.00,0,Wunderground v.1.15,2013-03-10 10:11:00,
2013-03-10 06:16:00,25.2,23.2,30.43,NE,49,0.0,1.0,92,0.00,,,0.00,0,Wunderground v.1.15,2013-03-10 10:16:00,
2013-03-10 06:21:00,25.2,23.2,30.43,NE,49,0.0,1.0,92,0.00,,,0.00,0,Wunderground v.1.15,2013-03-10 10:21:00,
2013-03-10 06:26:00,25.2,23.2,30.43,NE,49,0.0,1.0,92,0.00,,,0.00,0,Wunderground v.1.15,2013-03-10 10:26:00,
2013-03-10 06:31:00,25.2,23.5,30.43,NE,49,0.0,1.0,93,0.00,,,0.00,0,Wunderground v.1.15,2013-03-10 10:31:00,
2013-03-10 06:36:00,25.2,23.2,30.43,NE,49,0.0,1.0,92,0.00,,,0.00,0,Wunderground v.1.15,2013-03-10 10:36:00,
2013-03-10 06:41:00,25.1,23.1,30.43,NE,49,0.0,1.0,92,0.00,,,0.00,0,Wunderground v.1.15,2013-03-10 10:41:00,
2013-03-10 06:46:00,24.9,22.9,30.43,NE,49,0.0,1.0,92,0.00,,,0.00,0,Wunderground v.1.15,2013-03-10 10:46:00,
2013-03-10 06:52:00,24.8,23.1,30.43,NE,49,0.0,1.0,93,0.00,,,0.00,0,Wunderground v.1.15,2013-03-10 10:52:00,
2013-03-10 06:57:00,24.8,23.1,30.43,NE,49,0.0,1.0,93,0.00,,,0.00,0,Wunderground v.1.15,2013-03-10 10:57:00,
2013-03-10 07:02:00,24.7,23.0,30.43,NE,49,0.0,1.0,93,0.00,,,0.00,0,Wunderground v.1.15,2013-03-10 11:02:00,
2013-03-10 07:07:00,24.7,23.0,30.43,NE,49,0.0,1.0,93,0.00,,,0.00,0,Wunderground v.1.15,2013-03-10 11:07:00,
2013-03-10 07:12:00,24.7,23.0,30.43,NE,49,0.0,1.0,93,0.00,,,0.00,0,Wunderground v.1.15,2013-03-10 11:12:00,
2013-03-10 07:17:00,24.6,22.9,30.43,NE,49,0.0,1.0,93,0.00,,,0.00,5,Wunderground v.1.15,2013-03-10 11:17:00,
2013-03-10 07:23:00,24.5,22.8,30.43,NE,49,0.0,1.0,93,0.00,,,0.00,7,Wunderground v.1.15,2013-03-10 11:23:00,
2013-03-10 07:28:00,24.5,22.8,30.43,NE,49,0.0,1.0,93,0.00,,,0.00,9,Wunderground v.1.15,2013-03-10 11:28:00,
2013-03-10 07:33:00,24.4,22.7,30.44,NE,49,0.0,1.0,93,0.00,,,0.00,14,Wunderground v.1.15,2013-03-10 11:33:00,
2013-03-10 07:38:00,24.5,22.8,30.44,NE,49,0.0,1.0,93,0.00,,,0.00,18,Wunderground v.1.15,2013-03-10 11:38:00,
2013-03-10 07:44:00,24.7,23.0,30.44,NE,49,0.0,1.0,93,0.00,,,0.00,21,Wunderground v.1.15,2013-03-10 11:44:00,
2013-03-10 07:49:00,25.0,23.5,30.44,NE,49,0.0,1.0,94,0.00,,,0.00,25,Wunderground v.1.15,2013-03-10 11:49:00,
2013-03-10 07:54:00,25.3,23.8,30.44,NE,49,0.0,1.0,94,0.00,,,0.00,28,Wunderground v.1.15,2013-03-10 11:54:00,
2013-03-10 07:59:00,25.6,24.1,30.44,NE,49,0.0,1.0,94,0.00,,,0.00,37,Wunderground v.1.15,2013-03-10 11:59:00,
2013-03-10 08:04:00,25.8,24.1,30.44,NE,49,0.0,1.0,93,0.00,,,0.00,53,Wunderground v.1.15,2013-03-10 12:04:00,
2013-03-10 08:09:00,26.0,24.3,30.44,NE,49,0.0,1.0,93,0.00,,,0.00,84,Wunderground v.1.15,2013-03-10 12:09:00,
2013-03-10 08:15:00,26.3,24.6,30.44,NE,49,0.0,1.0,93,0.00,,,0.00,104,Wunderground v.1.15,2013-03-10 12:15:00,
2013-03-10 08:20:00,26.8,25.0,30.44,NE,49,0.0,1.0,93,0.00,,,0.00,105,Wunderground v.1.15,2013-03-10 12:20:00,
2013-03-10 08:25:00,27.3,25.5,30.44,NE,49,0.0,1.0,93,0.00,,,0.00,114,Wunderground v.1.15,2013-03-10 12:25:00,
2013-03-10 08:30:00,28.1,26.6,30.44,NE,49,0.0,1.0,94,0.00,,,0.00,128,Wunderground v.1.15,2013-03-10 12:30:00,
2013-03-10 08:36:00,28.8,26.8,30.44,NE,49,0.0,1.0,92,0.00,,,0.00,148,Wunderground v.1.15,2013-03-10 12:36:00,
2013-03-10 08:41:00,29.0,27.0,30.44,NE,49,0.0,1.0,92,0.00,,,0.00,167,Wunderground v.1.15,2013-03-10 12:41:00,
2013-03-10 08:46:00,29.7,27.7,30.44,NE,49,0.0,1.0,92,0.00,,,0.00,186,Wunderground v.1.15,2013-03-10 12:46:00,
2013-03-10 08:51:00,29.9,27.6,30.44,NE,49,0.0,2.0,91,0.00,,,0.00,209,Wunderground v.1.15,2013-03-10 12:51:00,
2013-03-10 08:56:00,30.3,27.7,30.44,NE,49,0.0,2.0,90,0.00,,,0.00,229,Wunderground v.1.15,2013-03-10 12:56:00,
2013-03-10 09:01:00,31.0,28.1,30.45,NNW,339,1.0,3.0,89,0.00,,,0.00,253,Wunderground v.1.15,2013-03-10 13:01:00,
2013-03-10 09:06:00,31.7,28.6,30.45,NNW,339,2.0,3.0,88,0.00,,,0.00,278,Wunderground v.1.15,2013-03-10 13:06:00,
2013-03-10 09:12:00,32.4,29.0,30.45,NNW,339,1.0,2.0,87,0.00,,,0.00,299,Wunderground v.1.15,2013-03-10 13:12:00,
2013-03-10 09:17:00,33.2,30.0,30.45,NNW,339,1.0,2.0,88,0.00,,,0.00,308,Wunderground v.1.15,2013-03-10 13:17:00,
2013-03-10 09:22:00,33.9,30.4,30.45,NNW,339,1.0,1.0,87,0.00,,,0.00,332,Wunderground v.1.15,2013-03-10 13:22:00,
2013-03-10 09:27:00,34.6,31.1,30.45,NNW,339,0.0,1.0,87,0.00,,,0.00,348,Wunderground v.1.15,2013-03-10 13:27:00,
2013-03-10 09:32:00,35.5,32.0,30.45,NNW,339,0.0,1.0,87,0.00,,,0.00,362,Wunderground v.1.15,2013-03-10 13:32:00,
2013-03-10 09:37:00,36.6,32.5,30.45,NNW,339,0.0,1.0,85,0.00,,,0.00,378,Wunderground v.1.15,2013-03-10 13:37:00,
2013-03-10 09:43:00,37.7,33.3,30.45,NNW,339,0.0,1.0,84,0.00,,,0.00,394,Wunderground v.1.15,2013-03-10 13:43:00,
2013-03-10 09:48:00,38.5,34.4,30.45,NNW,339,0.0,1.0,85,0.00,,,0.00,413,Wunderground v.1.15,2013-03-10 13:48:00,
2013-03-10 09:53:00,39.6,35.2,30.44,SE,138,0.0,3.0,84,0.00,,,0.00,429,Wunderground v.1.15,2013-03-10 13:53:00,
2013-03-10 09:58:00,41.4,35.4,30.45,ESE,117,2.0,5.0,79,0.00,,,0.00,445,Wunderground v.1.15,2013-03-10 13:58:00,
2013-03-10 10:03:00,42.5,35.1,30.44,SE,128,3.0,5.0,75,0.00,,,0.00,462,Wunderground v.1.15,2013-03-10 14:03:00,
2013-03-10 10:09:00,42.9,35.2,30.45,SSE,165,3.0,5.0,74,0.00,,,0.00,487,Wunderground v.1.15,2013-03-10 14:09:00,
2013-03-10 10:14:00,43.0,33.5,30.44,ESE,119,4.0,8.0,69,0.00,,,0.00,503,Wunderground v.1.15,2013-03-10 14:14:00,
2013-03-10 10:19:00,43.3,33.8,30.44,SE,128,4.0,8.0,69,0.00,,,0.00,522,Wunderground v.1.15,2013-03-10 14:19:00,
2013-03-10 10:24:00,44.0,34.8,30.44,East,96,3.0,4.0,70,0.00,,,0.00,501,Wunderground v.1.15,2013-03-10 14:24:00,
2013-03-10 10:29:00,44.8,34.1,30.44,SE,139,3.0,7.0,66,0.00,,,0.00,547,Wunderground v.1.15,2013-03-10 14:29:00,
2013-03-10 10:35:00,44.9,33.8,30.44,East,97,4.0,7.0,65,0.00,,,0.00,559,Wunderground v.1.15,2013-03-10 14:35:00,
2013-03-10 10:40:00,45.0,33.5,30.44,East,101,4.0,4.0,64,0.00,,,0.00,550,Wunderground v.1.15,2013-03-10 14:40:00,
2013-03-10 10:45:00,45.1,34.4,30.44,East,92,4.0,8.0,66,0.00,,,0.00,563,Wunderground v.1.15,2013-03-10 14:45:00,
2013-03-10 10:50:00,45.2,34.1,30.44,ESE,106,4.0,4.0,65,0.00,,,0.00,585,Wunderground v.1.15,2013-03-10 14:50:00,
2013-03-10 10:55:00,45.5,34.0,30.44,ESE,115,3.0,7.0,64,0.00,,,0.00,603,Wunderground v.1.15,2013-03-10 14:55:00,
2013-03-10 11:01:00,46.1,34.2,30.44,ENE,61,3.0,4.0,63,0.00,,,0.00,612,Wunderground v.1.15,2013-03-10 15:01:00,
2013-03-10 11:06:00,46.1,34.6,30.44,NE,55,3.0,6.0,64,0.00,,,0.00,621,Wunderground v.1.15,2013-03-10 15:06:00,
2013-03-10 11:11:00,46.2,35.1,30.44,NE,50,3.0,3.0,65,0.00,,,0.00,647,Wunderground v.1.15,2013-03-10 15:11:00,
2013-03-10 11:16:00,46.6,34.7,30.43,ESE,120,3.0,5.0,63,0.00,,,0.00,705,Wunderground v.1.15,2013-03-10 15:16:00,
2013-03-10 11:21:00,47.1,34.7,30.43,ENE,67,4.0,4.0,62,0.00,,,0.00,332,Wunderground v.1.15,2013-03-10 15:21:00,
2013-03-10 11:27:00,47.2,33.2,30.43,South,169,4.0,5.0,58,0.00,,,0.00,376,Wunderground v.1.15,2013-03-10 15:27:00,
2013-03-10 11:32:00,47.2,34.0,30.43,NE,42,4.0,7.0,60,0.00,,,0.00,385,Wunderground v.1.15,2013-03-10 15:32:00,
2013-03-10 11:37:00,47.1,33.5,30.43,ESE,121,4.0,8.0,59,0.00,,,0.00,571,Wunderground v.1.15,2013-03-10 15:37:00,
2013-03-10 11:42:00,47.4,33.8,30.43,SSE,150,4.0,4.0,59,0.00,,,0.00,348,Wunderground v.1.15,2013-03-10 15:42:00,
2013-03-10 11:47:00,47.5,34.3,30.43,ESE,118,3.0,4.0,60,0.00,,,0.00,615,Wunderground v.1.15,2013-03-10 15:47:00,
2013-03-10 11:52:00,48.4,33.9,30.43,ENE,68,3.0,4.0,57,0.00,,,0.00,816,Wunderground v.1.15,2013-03-10 15:52:00,
2013-03-10 11:57:00,48.8,34.7,30.43,ESE,102,5.0,9.0,58,0.00,,,0.00,800,Wunderground v.1.15,2013-03-10 15:57:00,
2013-03-10 12:02:00,49.1,33.6,30.43,SSE,148,5.0,7.0,55,0.00,,,0.00,747,Wunderground v.1.15,2013-03-10 16:02:00,
2013-03-10 12:08:00,48.9,34.3,30.43,East,83,4.0,9.0,57,0.00,,,0.00,758,Wunderground v.1.15,2013-03-10 16:08:00,
2013-03-10 12:13:00,48.8,33.8,30.42,ESE,108,5.0,7.0,56,0.00,,,0.00,737,Wunderground v.1.15,2013-03-10 16:13:00,
2013-03-10 12:19:00,49.0,34.0,30.43,ENE,65,4.0,7.0,56,0.00,,,0.00,524,Wunderground v.1.15,2013-03-10 16:19:00,
2013-03-10 12:24:00,49.5,34.9,30.42,East,101,3.0,7.0,57,0.00,,,0.00,543,Wunderground v.1.15,2013-03-10 16:24:00,
2013-03-10 12:29:00,50.0,34.9,30.42,East,92,4.0,7.0,56,0.00,,,0.00,793,Wunderground v.1.15,2013-03-10 16:29:00,
2013-03-10 12:34:00,50.5,34.0,30.42,East,100,4.0,6.0,53,0.00,,,0.00,793,Wunderground v.1.15,2013-03-10 16:34:00,
2013-03-10 12:39:00,51.2,35.6,30.42,East,82,4.0,8.0,55,0.00,,,0.00,891,Wunderground v.1.15,2013-03-10 16:39:00,
2013-03-10 12:45:00,51.2,35.1,30.42,ENE,63,4.0,5.0,54,0.00,,,0.00,520,Wunderground v.1.15,2013-03-10 16:45:00,
2013-03-10 12:50:00,51.1,34.1,30.42,NNE,32,3.0,3.0,52,0.00,,,0.00,800,Wunderground v.1.15,2013-03-10 16:50:00,
2013-03-10 12:55:00,51.6,35.5,30.42,South,170,4.0,6.0,54,0.00,,,0.00,786,Wunderground v.1.15,2013-03-10 16:55:00,
2013-03-10 13:00:00,51.3,34.3,30.42,SSE,162,4.0,6.0,52,0.00,,,0.00,810,Wunderground v.1.15,2013-03-10 17:00:00,
2013-03-10 13:05:00,50.9,33.4,30.42,SSW,203,5.0,6.0,51,0.00,,,0.00,784,Wunderground v.1.15,2013-03-10 17:05:00,
2013-03-10 13:11:00,51.2,33.7,30.42,South,186,5.0,5.0,51,0.00,,,0.00,737,Wunderground v.1.15,2013-03-10 17:11:00,
2013-03-10 13:16:00,51.4,33.9,30.42,South,179,5.0,6.0,51,0.00,,,0.00,591,Wunderground v.1.15,2013-03-10 17:16:00,
2013-03-10 13:21:00,51.4,33.4,30.41,SE,138,5.0,6.0,50,0.00,,,0.00,812,Wunderground v.1.15,2013-03-10 17:21:00,
2013-03-10 13:26:00,51.1,35.0,30.41,ESE,122,5.0,6.0,54,0.00,,,0.00,907,Wunderground v.1.15,2013-03-10 17:26:00,
2013-03-10 13:31:00,51.8,33.7,30.41,SE,134,4.0,4.0,50,0.00,,,0.00,533,Wunderground v.1.15,2013-03-10 17:31:00,
2013-03-10 13:37:00,51.9,35.3,30.40,ESE,119,4.0,4.0,53,0.00,,,0.00,425,Wunderground v.1.15,2013-03-10 17:37:00,
2013-03-10 13:42:00,51.9,33.8,30.40,ESE,113,4.0,7.0,50,0.00,,,0.00,478,Wunderground v.1.15,2013-03-10 17:42:00,
2013-03-10 13:47:00,52.4,34.3,30.40,SSW,192,3.0,7.0,50,0.00,,,0.00,624,Wunderground v.1.15,2013-03-10 17:47:00,
2013-03-10 13:52:00,53.0,34.3,30.40,ESE,107,3.0,5.0,49,0.00,,,0.00,468,Wunderground v.1.15,2013-03-10 17:52:00,
2013-03-10 13:57:00,53.5,34.8,30.39,ESE,119,4.0,7.0,49,0.00,,,0.00,513,Wunderground v.1.15,2013-03-10 17:57:00,
2013-03-10 14:03:00,52.9,34.8,30.39,East,89,4.0,5.0,50,0.00,,,0.00,475,Wunderground v.1.15,2013-03-10 18:03:00,
2013-03-10 14:08:00,53.3,35.6,30.38,East,96,3.0,7.0,51,0.00,,,0.00,575,Wunderground v.1.15,2013-03-10 18:08:00,
2013-03-10 14:13:00,54.0,37.2,30.38,ESE,116,3.0,3.0,53,0.00,,,0.00,510,Wunderground v.1.15,2013-03-10 18:13:00,
2013-03-10 14:18:00,54.8,35.5,30.38,SE,135,4.0,7.0,48,0.00,,,0.00,851,Wunderground v.1.15,2013-03-10 18:18:00,
2013-03-10 14:23:00,54.7,35.9,30.38,East,101,4.0,4.0,49,0.00,,,0.00,786,Wunderground v.1.15,2013-03-10 18:23:00,
2013-03-10 14:28:00,54.8,36.0,30.37,East,92,4.0,7.0,49,0.00,,,0.00,350,Wunderground v.1.15,2013-03-10 18:28:00,
2013-03-10 14:33:00,54.3,34.5,30.37,SSE,153,4.0,9.0,47,0.00,,,0.00,408,Wunderground v.1.15,2013-03-10 18:33:00,
2013-03-10 14:38:00,54.0,34.7,30.37,ESE,119,5.0,9.0,48,0.00,,,0.00,504,Wunderground v.1.15,2013-03-10 18:38:00,
2013-03-10 14:43:00,54.5,34.7,30.38,ESE,114,4.0,7.0,47,0.00,,,0.00,610,Wunderground v.1.15,2013-03-10 18:43:00,
2013-03-10 14:48:00,54.8,34.9,30.37,SE,126,4.0,7.0,47,0.00,,,0.00,698,Wunderground v.1.15,2013-03-10 18:48:00,
2013-03-10 14:54:00,55.0,34.0,30.37,SSW,212,3.0,5.0,45,0.00,,,0.00,649,Wunderground v.1.15,2013-03-10 18:54:00,
2013-03-10 14:59:00,55.6,35.1,30.37,SSW,195,3.0,5.0,46,0.00,,,0.00,635,Wunderground v.1.15,2013-03-10 18:59:00,
2013-03-10 15:04:00,55.7,36.3,30.37,East,91,3.0,7.0,48,0.00,,,0.00,628,Wunderground v.1.15,2013-03-10 19:04:00,
2013-03-10 15:09:00,56.0,34.9,30.37,ENE,62,3.0,3.0,45,0.00,,,0.00,633,Wunderground v.1.15,2013-03-10 19:09:00,
2013-03-10 15:14:00,55.9,34.8,30.36,SE,140,4.0,6.0,45,0.00,,,0.00,613,Wunderground v.1.15,2013-03-10 19:14:00,
2013-03-10 15:19:00,56.2,35.7,30.36,ESE,123,4.0,10.0,46,0.00,,,0.00,578,Wunderground v.1.15,2013-03-10 19:19:00,
2013-03-10 15:25:00,56.5,34.3,30.36,SE,135,4.0,10.0,43,0.00,,,0.00,585,Wunderground v.1.15,2013-03-10 19:25:00,
2013-03-10 15:30:00,56.4,35.9,30.37,SE,136,5.0,6.0,46,0.00,,,0.00,568,Wunderground v.1.15,2013-03-10 19:30:00,
2013-03-10 15:35:00,56.5,35.4,30.36,ESE,123,4.0,9.0,45,0.00,,,0.00,559,Wunderground v.1.15,2013-03-10 19:35:00,
2013-03-10 15:40:00,56.6,33.8,30.36,SSE,162,5.0,6.0,42,0.00,,,0.00,531,Wunderground v.1.15,2013-03-10 19:40:00,
2013-03-10 15:46:00,56.9,34.0,30.36,SE,128,5.0,6.0,42,0.00,,,0.00,526,Wunderground v.1.15,2013-03-10 19:46:00,
2013-03-10 15:51:00,57.0,34.7,30.36,ESE,115,5.0,8.0,43,0.00,,,0.00,519,Wunderground v.1.15,2013-03-10 19:51:00,
2013-03-10 15:56:00,56.8,34.5,30.36,SSE,162,5.0,8.0,43,0.00,,,0.00,506,Wunderground v.1.15,2013-03-10 19:56:00,
2013-03-10 16:01:00,56.9,34.0,30.36,ESE,118,4.0,4.0,42,0.00,,,0.00,492,Wunderground v.1.15,2013-03-10 20:01:00,
2013-03-10 16:06:00,57.0,34.7,30.36,SSE,150,4.0,7.0,43,0.00,,,0.00,478,Wunderground v.1.15,2013-03-10 20:06:00,
2013-03-10 16:11:00,56.9,35.2,30.35,East,86,4.0,5.0,44,0.00,,,0.00,455,Wunderground v.1.15,2013-03-10 20:11:00,
2013-03-10 16:16:00,56.7,34.4,30.35,East,96,4.0,6.0,43,0.00,,,0.00,473,Wunderground v.1.15,2013-03-10 20:16:00,
2013-03-10 16:22:00,56.8,34.5,30.35,SSE,163,5.0,10.0,43,0.00,,,0.00,422,Wunderground v.1.15,2013-03-10 20:22:00,
2013-03-10 16:27:00,56.8,34.5,30.35,SE,136,5.0,10.0,43,0.00,,,0.00,413,Wunderground v.1.15,2013-03-10 20:27:00,
2013-03-10 16:32:00,57.2,34.9,30.35,SSE,156,4.0,4.0,43,0.00,,,0.00,418,Wunderground v.1.15,2013-03-10 20:32:00,
2013-03-10 16:37:00,57.0,34.1,30.35,SE,134,4.0,10.0,42,0.00,,,0.00,404,Wunderground v.1.15,2013-03-10 20:37:00,
2013-03-10 16:43:00,57.0,34.1,30.35,SSE,155,5.0,5.0,42,0.00,,,0.00,308,Wunderground v.1.15,2013-03-10 20:43:00,
2013-03-10 16:49:00,56.6,34.3,30.34,South,171,4.0,9.0,43,0.00,,,0.00,343,Wunderground v.1.15,2013-03-10 20:49:00,
2013-03-10 16:54:00,56.6,34.3,30.34,SE,130,5.0,6.0,43,0.00,,,0.00,246,Wunderground v.1.15,2013-03-10 20:54:00,
2013-03-10 16:59:00,56.8,34.5,30.34,SE,128,4.0,6.0,43,0.00,,,0.00,265,Wunderground v.1.15,2013-03-10 20:59:00,
2013-03-10 17:04:00,56.8,34.5,30.34,SE,127,4.0,5.0,43,0.00,,,0.00,192,Wunderground v.1.15,2013-03-10 21:04:00,
2013-03-10 17:10:00,56.7,34.4,30.35,East,95,4.0,4.0,43,0.00,,,0.00,269,Wunderground v.1.15,2013-03-10 21:10:00,
2013-03-10 17:15:00,56.6,34.9,30.34,East,92,4.0,8.0,44,0.00,,,0.00,257,Wunderground v.1.15,2013-03-10 21:15:00,
2013-03-10 17:20:00,56.9,36.9,30.34,ESE,111,3.0,8.0,47,0.00,,,0.00,209,Wunderground v.1.15,2013-03-10 21:20:00,
2013-03-10 17:25:00,56.1,38.7,30.34,ESE,109,4.0,8.0,52,0.00,,,0.00,221,Wunderground v.1.15,2013-03-10 21:25:00,
2013-03-10 17:30:00,55.5,39.1,30.34,ESE,120,4.0,4.0,54,0.00,,,0.00,118,Wunderground v.1.15,2013-03-10 21:30:00,
2013-03-10 17:36:00,54.6,38.3,30.34,East,90,4.0,6.0,54,0.00,,,0.00,120,Wunderground v.1.15,2013-03-10 21:36:00,
2013-03-10 17:42:00,54.1,39.2,30.35,East,101,4.0,5.0,57,0.00,,,0.00,181,Wunderground v.1.15,2013-03-10 21:42:00,
2013-03-10 17:47:00,53.8,38.9,30.35,ESE,109,4.0,11.0,57,0.00,,,0.00,179,Wunderground v.1.15,2013-03-10 21:47:00,
2013-03-10 17:52:00,53.4,39.0,30.35,ESE,108,4.0,7.0,58,0.00,,,0.00,155,Wunderground v.1.15,2013-03-10 21:52:00,
2013-03-10 17:58:00,53.2,38.8,30.35,ENE,78,3.0,7.0,58,0.00,,,0.00,90,Wunderground v.1.15,2013-03-10 21:58:00,
2013-03-10 18:03:00,52.6,38.7,30.35,ESE,111,3.0,4.0,59,0.00,,,0.00,109,Wunderground v.1.15,2013-03-10 22:03:00,
2013-03-10 18:08:00,52.1,38.6,30.35,East,100,3.0,5.0,60,0.00,,,0.00,62,Wunderground v.1.15,2013-03-10 22:08:00,
2013-03-10 18:14:00,51.2,38.6,30.35,ESE,109,3.0,5.0,62,0.00,,,0.00,51,Wunderground v.1.15,2013-03-10 22:14:00,
2013-03-10 18:19:00,50.5,38.4,30.36,East,98,4.0,5.0,63,0.00,,,0.00,49,Wunderground v.1.15,2013-03-10 22:19:00,
2013-03-10 18:24:00,50.0,38.3,30.36,East,96,4.0,8.0,64,0.00,,,0.00,47,Wunderground v.1.15,2013-03-10 22:24:00,
2013-03-10 18:29:00,49.7,38.4,30.36,ESE,103,3.0,4.0,65,0.00,,,0.00,30,Wunderground v.1.15,2013-03-10 22:29:00,
2013-03-10 18:35:00,49.3,38.0,30.36,East,87,3.0,4.0,65,0.00,,,0.00,23,Wunderground v.1.15,2013-03-10 22:35:00,
2013-03-10 18:41:00,48.9,38.0,30.37,East,92,3.0,8.0,66,0.00,,,0.00,21,Wunderground v.1.15,2013-03-10 22:41:00,
2013-03-10 18:46:00,48.6,37.7,30.37,East,84,4.0,8.0,66,0.00,,,0.00,14,Wunderground v.1.15,2013-03-10 22:46:00,
2013-03-10 18:51:00,48.3,37.8,30.37,ENE,73,3.0,3.0,67,0.00,,,0.00,7,Wunderground v.1.15,2013-03-10 22:51:00,
2013-03-10 18:56:00,48.1,38.0,30.37,East,98,2.0,5.0,68,0.00,,,0.00,5,Wunderground v.1.15,2013-03-10 22:56:00,
2013-03-10 19:01:00,47.8,37.7,30.37,ESE,106,3.0,5.0,68,0.00,,,0.00,0,Wunderground v.1.15,2013-03-10 23:01:00,
2013-03-10 19:06:00,47.4,37.7,30.37,East,92,4.0,6.0,69,0.00,,,0.00,0,Wunderground v.1.15,2013-03-10 23:06:00,
2013-03-10 19:11:00,47.1,37.4,30.37,East,89,3.0,4.0,69,0.00,,,0.00,0,Wunderground v.1.15,2013-03-10 23:11:00,
2013-03-10 19:16:00,46.8,37.5,30.37,East,92,3.0,4.0,70,0.00,,,0.00,0,Wunderground v.1.15,2013-03-10 23:16:00,
2013-03-10 19:21:00,46.6,37.3,30.37,East,90,2.0,2.0,70,0.00,,,0.00,0,Wunderground v.1.15,2013-03-10 23:21:00,
2013-03-10 19:26:00,46.3,37.4,30.37,East,80,2.0,5.0,71,0.00,,,0.00,0,Wunderground v.1.15,2013-03-10 23:26:00,
2013-03-10 19:31:00,46.0,37.1,30.37,SSE,150,4.0,6.0,71,0.00,,,0.00,0,Wunderground v.1.15,2013-03-10 23:31:00,
2013-03-10 19:36:00,45.8,36.9,30.37,East,95,4.0,8.0,71,0.00,,,0.00,0,Wunderground v.1.15,2013-03-10 23:36:00,
2013-03-10 19:42:00,45.4,36.9,30.37,ESE,121,3.0,7.0,72,0.00,,,0.00,0,Wunderground v.1.15,2013-03-10 23:42:00,
2013-03-10 19:47:00,45.1,37.0,30.37,East,97,4.0,9.0,73,0.00,,,0.00,0,Wunderground v.1.15,2013-03-10 23:47:00,
2013-03-10 19:53:00,44.8,36.7,30.37,SE,146,5.0,5.0,73,0.00,,,0.00,0,Wunderground v.1.15,2013-03-10 23:53:00,
2013-03-10 19:59:00,44.6,36.8,30.37,East,101,4.0,6.0,74,0.00,,,0.00,0,Wunderground v.1.15,2013-03-10 23:59:00,
2013-03-10 20:04:00,44.4,36.6,30.37,NE,53,3.0,7.0,74,0.00,,,0.00,0,Wunderground v.1.15,2013-03-11 00:04:00,
2013-03-10 20:10:00,44.2,36.4,30.37,East,92,3.0,3.0,74,0.00,,,0.00,0,Wunderground v.1.15,2013-03-11 00:10:00,
2013-03-10 20:15:00,44.1,36.7,30.37,East,100,3.0,5.0,75,0.00,,,0.00,0,Wunderground v.1.15,2013-03-11 00:15:00,
2013-03-10 20:21:00,43.8,36.4,30.37,East,91,4.0,5.0,75,0.00,,,0.00,0,Wunderground v.1.15,2013-03-11 00:21:00,
2013-03-10 20:26:00,43.6,36.2,30.38,East,92,5.0,8.0,75,0.00,,,0.00,0,Wunderground v.1.15,2013-03-11 00:26:00,
2013-03-10 20:32:00,43.2,35.8,30.38,ESE,103,5.0,8.0,75,0.00,,,0.00,0,Wunderground v.1.15,2013-03-11 00:32:00,
2013-03-10 20:38:00,42.9,35.9,30.38,ESE,105,5.0,8.0,76,0.00,,,0.00,0,Wunderground v.1.15,2013-03-11 00:38:00,
2013-03-10 20:43:00,42.6,35.9,30.38,ENE,72,3.0,5.0,77,0.00,,,0.00,0,Wunderground v.1.15,2013-03-11 00:43:00,
2013-03-10 20:49:00,42.3,35.6,30.38,East,86,3.0,5.0,77,0.00,,,0.00,0,Wunderground v.1.15,2013-03-11 00:49:00,
2013-03-10 20:54:00,42.1,35.7,30.38,East,100,3.0,7.0,78,0.00,,,0.00,0,Wunderground v.1.15,2013-03-11 00:54:00,
2013-03-10 20:59:00,41.8,35.4,30.38,ENE,64,2.0,7.0,78,0.00,,,0.00,0,Wunderground v.1.15,2013-03-11 00:59:00,
2013-03-10 21:04:00,41.4,35.4,30.38,ENE,78,2.0,6.0,79,0.00,,,0.00,0,Wunderground v.1.15,2013-03-11 01:04:00,
2013-03-10 21:10:00,41.1,35.1,30.37,East,82,3.0,3.0,79,0.00,,,0.00,0,Wunderground v.1.15,2013-03-11 01:10:00,
2013-03-10 21:15:00,40.8,35.1,30.37,ENE,67,3.0,7.0,80,0.00,,,0.00,0,Wunderground v.1.15,2013-03-11 01:15:00,
2013-03-10 21:20:00,40.7,35.0,30.38,East,97,2.0,5.0,80,0.00,,,0.00,0,Wunderground v.1.15,2013-03-11 01:20:00,
2013-03-10 21:25:00,40.5,35.1,30.37,East,96,2.0,8.0,81,0.00,,,0.00,0,Wunderground v.1.15,2013-03-11 01:25:00,
2013-03-10 21:30:00,40.3,34.9,30.38,East,92,2.0,2.0,81,0.00,,,0.00,0,Wunderground v.1.15,2013-03-11 01:30:00,
2013-03-10 21:36:00,40.1,34.7,30.38,ESE,111,2.0,5.0,81,0.00,,,0.00,0,Wunderground v.1.15,2013-03-11 01:36:00,
2013-03-10 21:41:00,40.0,34.6,30.38,East,86,1.0,2.0,81,0.00,,,0.00,0,Wunderground v.1.15,2013-03-11 01:41:00,
2013-03-10 21:46:00,39.8,34.8,30.38,ESE,114,1.0,3.0,82,0.00,,,0.00,0,Wunderground v.1.15,2013-03-11 01:46:00,
2013-03-10 21:51:00,39.6,34.9,30.38,East,79,2.0,3.0,83,0.00,,,0.00,0,Wunderground v.1.15,2013-03-11 01:51:00,
2013-03-10 21:57:00,39.4,34.7,30.38,East,101,2.0,3.0,83,0.00,,,0.00,0,Wunderground v.1.15,2013-03-11 01:57:00,
2013-03-10 22:02:00,39.3,34.6,30.38,East,91,1.0,3.0,83,0.00,,,0.00,0,Wunderground v.1.15,2013-03-11 02:02:00,
2013-03-10 22:08:00,39.1,34.4,30.38,East,91,1.0,3.0,83,0.00,,,0.00,0,Wunderground v.1.15,2013-03-11 02:08:00,
2013-03-10 22:13:00,39.0,34.6,30.38,East,100,2.0,3.0,84,0.00,,,0.00,0,Wunderground v.1.15,2013-03-11 02:13:00,
2013-03-10 22:19:00,38.8,34.4,30.38,East,88,1.0,3.0,84,0.00,,,0.00,0,Wunderground v.1.15,2013-03-11 02:19:00,
2013-03-10 22:24:00,38.7,34.3,30.38,ENE,74,1.0,5.0,84,0.00,,,0.00,0,Wunderground v.1.15,2013-03-11 02:24:00,
2013-03-10 22:30:00,38.6,34.5,30.38,ENE,71,1.0,1.0,85,0.00,,,0.00,0,Wunderground v.1.15,2013-03-11 02:30:00,
2013-03-10 22:35:00,38.4,34.3,30.39,East,79,1.0,3.0,85,0.00,,,0.00,0,Wunderground v.1.15,2013-03-11 02:35:00,
2013-03-10 22:41:00,38.3,34.2,30.38,East,82,1.0,1.0,85,0.00,,,0.00,0,Wunderground v.1.15,2013-03-11 02:41:00,
2013-03-10 22:46:00,38.1,34.3,30.39,East,82,0.0,1.0,86,0.00,,,0.00,0,Wunderground v.1.15,2013-03-11 02:46:00,
2013-03-10 22:51:00,38.0,34.2,30.38,East,82,0.0,1.0,86,0.00,,,0.00,0,Wunderground v.1.15,2013-03-11 02:51:00,
2013-03-10 22:57:00,37.8,34.0,30.39,East,82,1.0,1.0,86,0.00,,,0.00,0,Wunderground v.1.15,2013-03-11 02:57:00,
2013-03-10 23:02:00,37.6,34.1,30.39,East,82,1.0,1.0,87,0.00,,,0.00,0,Wunderground v.1.15,2013-03-11 03:02:00,
2013-03-10 23:07:00,37.6,34.1,30.39,East,82,1.0,1.0,87,0.00,,,0.00,0,Wunderground v.1.15,2013-03-11 03:07:00,
2013-03-10 23:13:00,37.5,34.0,30.38,East,88,1.0,2.0,87,0.00,,,0.00,0,Wunderground v.1.15,2013-03-11 03:13:00,
2013-03-10 23:18:00,37.5,34.0,30.39,East,88,0.0,2.0,87,0.00,,,0.00,0,Wunderground v.1.15,2013-03-11 03:18:00,
2013-03-10 23:24:00,37.4,33.9,30.39,East,88,0.0,1.0,87,0.00,,,0.00,0,Wunderground v.1.15,2013-03-11 03:24:00,
2013-03-10 23:29:00,37.2,34.0,30.39,East,88,0.0,1.0,88,0.00,,,0.00,0,Wunderground v.1.15,2013-03-11 03:29:00,
2013-03-10 23:34:00,37.1,33.9,30.39,East,88,0.0,1.0,88,0.00,,,0.00,0,Wunderground v.1.15,2013-03-11 03:34:00,
2013-03-10 23:39:00,36.9,33.7,30.39,East,88,0.0,1.0,88,0.00,,,0.00,0,Wunderground v.1.15,2013-03-11 03:39:00,
2013-03-10 23:44:00,36.8,33.6,30.39,East,88,0.0,2.0,88,0.00,,,0.00,0,Wunderground v.1.15,2013-03-11 03:44:00,
2013-03-10 23:49:00,36.7,33.8,30.39,East,88,0.0,1.0,89,0.00,,,0.00,0,Wunderground v.1.15,2013-03-11 03:49:00,
2013-03-10 23:55:00,36.7,33.8,30.39,East,88,0.0,1.0,89,0.00,,,0.00,0,Wunderground v.1.15,2013-03-11 03:55:00,